Weather History for KSPA - March, 2014

Change the Weather History Date:

Monday, March 17, 2014

  Actual Average (KGSP) Record (KGSP)
Temperature  
Mean Temperature 38 °F 53 °F  
Max Temperature 42 °F 65 °F 85 °F (1945)
Min Temperature 33 °F 41 °F 21 °F (1981)
Degree Days  
Heating Degree Days 28 12  
Month to date heating degree days 240  
Since 1 July heating degree days 2689  
Cooling Degree Days 0 0  
Month to date cooling degree days 0  
Year to date cooling degree days 0  
Moisture  
Dew Point 37 °F    
Average Humidity 100    
Maximum Humidity 100    
Minimum Humidity 100    
Precipitation  
Precipitation 0.37 in 0.15 in 2.33 in (1990)
Month to date precipitation 2.53  
Year to date precipitation 10.32  
Snow  
Snow 0.00 in 0.00 in 0.10 in (2005)
Month to date snowfall 0.6  
Since 1 July snowfall 4.4  
Snow Depth -    
Sea Level Pressure  
Sea Level Pressure 29.84 in    
Wind  
Wind Speed 11 mph (NE)    
Max Wind Speed 17 mph    
Max Gust Speed 22 mph    
Visibility 7 miles    
Events Rain    
T = Trace of Precipitation, MM = Missing Value Source: NWS Daily Summary

Daily Weather History Graph

Daily Weather History Graph

Search for Another Location

Airport or City:

Trip Planner

Search our weather history database for the weather conditions in past years. The results will help you decide how hot, cold, wet, or windy it might be!

Date:

Astronomy

Mar. 17, 2014 Rise Set
Actual Time 7:35 AM EDT 7:37 PM EDT
Civil Twilight 7:10 AM EDT 8:02 PM EDT
Nautical Twilight 6:41 AM EDT 8:31 PM EDT
Astronomical Twilight 6:11 AM EDT 9:01 PM EDT
Moon 8:48 PM EDT (3/17) 7:53 AM EDT (3/17)
Length of Visible Light 12h 51m
Length of Day
12h 01m
Full, 99% of the Moon is Illuminated
Mar 17
Full
Mar 23
Last Quarter
Mar 30
New
Apr 7
First Quarter
Apr 15
Full

Hourly Weather History & Observations

Time (EDT) Temp. Windchill Dew Point Humidity Pressure Visibility Wind Dir Wind Speed Gust Speed Precip Events Conditions
12:15 AM 42.8 °F 35.8 °F 42.8 °F 100% 29.79 in 7.0 mi NNE 13.8 mph 17.3 mph N/A   Overcast
12:35 AM 42.8 °F 37.0 °F 42.8 °F 100% 29.79 in 4.0 mi NE 10.4 mph 18.4 mph 0.01 in   Light Drizzle
12:55 AM 42.8 °F 34.8 °F 42.8 °F 100% 29.80 in 5.0 mi NNE 17.3 mph - 0.01 in   Light Drizzle
1:15 AM 42.8 °F 35.4 °F 42.8 °F 100% 29.81 in 5.0 mi NNE 15.0 mph 19.6 mph 0.01 in Rain Rain
1:35 AM 42.8 °F 37.0 °F 42.8 °F 100% 29.80 in 5.0 mi NE 10.4 mph - 0.02 in Rain Rain
1:55 AM 42.8 °F 35.8 °F 42.8 °F 100% 29.79 in 10.0 mi NE 13.8 mph 21.9 mph 0.03 in   Overcast
2:15 AM 42.8 °F 35.8 °F 42.8 °F 100% 29.79 in 10.0 mi NNE 13.8 mph 20.7 mph 0.01 in   Overcast
2:35 AM 42.8 °F 35.8 °F 42.8 °F 100% 29.79 in 10.0 mi NE 13.8 mph - 0.01 in   Overcast
2:55 AM 41.0 °F 34.3 °F 41.0 °F 100% 29.80 in 10.0 mi NE 11.5 mph 17.3 mph 0.01 in   Overcast
3:15 AM 41.0 °F 33.9 °F 41.0 °F 100% 29.80 in 10.0 mi NE 12.7 mph 20.7 mph N/A   Overcast
3:35 AM 41.0 °F 32.8 °F 41.0 °F 100% 29.79 in 7.0 mi NE 16.1 mph 20.7 mph N/A   Overcast
3:55 AM 41.0 °F 33.5 °F 41.0 °F 100% 29.78 in 5.0 mi NE 13.8 mph - N/A   Light Drizzle
4:15 AM 41.0 °F 33.5 °F 41.0 °F 100% 29.78 in 10.0 mi NE 13.8 mph 19.6 mph N/A   Overcast
4:35 AM 39.2 °F 31.6 °F 39.2 °F 100% 29.77 in 10.0 mi NE 12.7 mph 21.9 mph N/A   Overcast
4:55 AM 39.2 °F 32.0 °F 39.2 °F 100% 29.78 in 10.0 mi NNE 11.5 mph - N/A   Overcast
5:15 AM 37.4 °F 29.3 °F 37.4 °F 100% 29.77 in 5.0 mi NNE 12.7 mph 19.6 mph N/A   Overcast
5:35 AM 37.4 °F 29.3 °F 37.4 °F 100% 29.79 in 7.0 mi NE 12.7 mph 19.6 mph N/A   Overcast
5:55 AM 37.4 °F 29.3 °F 37.4 °F 100% 29.77 in 10.0 mi NE 12.7 mph 17.3 mph N/A   Overcast
6:15 AM 37.4 °F 29.8 °F 37.4 °F 100% 29.77 in 10.0 mi NE 11.5 mph 17.3 mph N/A   Overcast
6:35 AM 37.4 °F 28.9 °F 37.4 °F 100% 29.77 in 10.0 mi NNE 13.8 mph 19.6 mph N/A   Overcast
6:55 AM 37.4 °F 28.9 °F 37.4 °F 100% 29.80 in 10.0 mi NNE 13.8 mph 20.7 mph N/A   Overcast
7:15 AM 37.4 °F 31.4 °F 37.4 °F 100% 29.81 in 5.0 mi NE 8.1 mph 16.1 mph N/A   Overcast
7:35 AM 37.4 °F 29.8 °F 37.4 °F 100% 29.81 in 4.0 mi NE 11.5 mph 17.3 mph N/A   Overcast
7:55 AM 35.6 °F 26.6 °F 35.6 °F 100% 29.81 in 3.0 mi NE 13.8 mph 18.4 mph N/A   Light Drizzle
8:15 AM 35.6 °F 28.0 °F 35.6 °F 100% 29.80 in 4.0 mi NE 10.4 mph 16.1 mph N/A   Overcast
8:35 AM 35.6 °F 27.1 °F 35.6 °F 100% 29.81 in 5.0 mi NE 12.7 mph 16.1 mph N/A   Overcast
8:55 AM 35.6 °F 28.0 °F 35.6 °F 100% 29.81 in 5.0 mi NE 10.4 mph - N/A   Overcast
9:15 AM 35.6 °F 28.6 °F 35.6 °F 100% 29.82 in 5.0 mi NE 9.2 mph 18.4 mph N/A   Overcast
9:35 AM 35.6 °F 28.6 °F 35.6 °F 100% 29.84 in 4.0 mi NE 9.2 mph - N/A   Light Drizzle
9:55 AM 35.6 °F 28.0 °F 35.6 °F 100% 29.83 in 7.0 mi NE 10.4 mph 17.3 mph N/A   Overcast
10:15 AM 35.6 °F 28.0 °F 35.6 °F 100% 29.84 in 4.0 mi NE 10.4 mph 16.1 mph N/A   Overcast
10:35 AM 35.6 °F 28.0 °F 35.6 °F 100% 29.85 in 2.5 mi NE 10.4 mph - N/A   Overcast
10:55 AM 35.6 °F 28.0 °F 35.6 °F 100% 29.85 in 2.0 mi NE 10.4 mph 17.3 mph N/A   Overcast
11:15 AM 35.6 °F 28.6 °F 35.6 °F 100% 29.85 in 1.8 mi ENE 9.2 mph 17.3 mph 0.01 in   Drizzle
11:35 AM 35.6 °F 28.0 °F 35.6 °F 100% 29.87 in 2.0 mi NNE 10.4 mph - 0.01 in   Light Drizzle
11:55 AM 35.6 °F 28.0 °F 35.6 °F 100% 29.85 in 1.5 mi NE 10.4 mph - 0.02 in Rain Rain
12:15 PM 35.6 °F 28.6 °F 35.6 °F 100% 29.85 in 1.8 mi NE 9.2 mph - 0.01 in Rain Rain
12:35 PM 37.4 °F 32.1 °F 37.4 °F 100% 29.86 in 10.0 mi NE 6.9 mph 10.4 mph 0.02 in   Overcast
12:55 PM 37.4 °F 31.4 °F 37.4 °F 100% 29.86 in 10.0 mi ENE 8.1 mph 16.1 mph 0.04 in Rain Rain
1:15 PM 37.4 °F 30.8 °F 37.4 °F 100% 29.85 in 10.0 mi ENE 9.2 mph - 0.01 in Rain Light Rain
1:35 PM 37.4 °F 32.8 °F 37.4 °F 100% 29.86 in 7.0 mi ENE 5.8 mph - 0.02 in   Drizzle
1:55 PM 37.4 °F 34.9 °F 37.4 °F 100% 29.87 in 10.0 mi NE 3.5 mph - 0.04 in Rain Rain
2:15 PM 37.4 °F 30.8 °F 37.4 °F 100% 29.85 in 10.0 mi NE 9.2 mph - N/A Rain Rain
2:35 PM 35.6 °F 28.0 °F 35.6 °F 100% 29.85 in 7.0 mi NE 10.4 mph - 0.01 in Rain Light Rain
2:55 PM 35.6 °F 29.9 °F 35.6 °F 100% 29.85 in 5.0 mi NE 6.9 mph - 0.02 in Rain Rain
3:15 PM 37.4 °F 30.8 °F 37.4 °F 100% 29.85 in 10.0 mi NE 9.2 mph - 0.01 in Rain Rain
3:35 PM 37.4 °F 31.4 °F 37.4 °F 100% 29.84 in 10.0 mi ENE 8.1 mph - 0.02 in   Drizzle
3:55 PM 37.4 °F 32.1 °F 37.4 °F 100% 29.84 in 10.0 mi NE 6.9 mph - 0.03 in   Light Drizzle
4:15 PM 35.6 °F 28.0 °F 35.6 °F 100% 29.82 in 7.0 mi NE 10.4 mph 16.1 mph N/A Rain Rain
4:35 PM 35.6 °F 29.9 °F 35.6 °F 100% 29.82 in 7.0 mi NE 6.9 mph - 0.01 in Rain Light Rain
4:55 PM 35.6 °F 27.5 °F 35.6 °F 100% 29.82 in 10.0 mi NE 11.5 mph 17.3 mph 0.02 in   Light Drizzle
5:15 PM 35.6 °F 30.7 °F 35.6 °F 100% 29.82 in 10.0 mi NE 5.8 mph - N/A   Light Drizzle
5:35 PM 35.6 °F 28.6 °F 35.6 °F 100% 29.83 in 5.0 mi NE 9.2 mph - 0.01 in   Light Drizzle
5:55 PM 35.6 °F 29.2 °F 35.6 °F 100% 29.83 in 5.0 mi ENE 8.1 mph - 0.01 in   Overcast
6:15 PM 35.6 °F 29.9 °F 35.6 °F 100% 29.82 in 4.0 mi ENE 6.9 mph - 0.01 in Rain Light Rain
6:35 PM 35.6 °F 28.6 °F 35.6 °F 100% 29.86 in 5.0 mi ENE 9.2 mph - 0.02 in Rain Rain
6:55 PM 35.6 °F 28.0 °F 35.6 °F 100% 29.85 in 5.0 mi NE 10.4 mph - 0.02 in Rain Light Rain
7:15 PM 35.6 °F 29.2 °F 35.6 °F 100% 29.85 in 7.0 mi ENE 8.1 mph - 0.01 in   Light Drizzle
7:35 PM 35.6 °F 31.7 °F 35.6 °F 100% 29.87 in 5.0 mi ENE 4.6 mph - 0.02 in Rain Light Rain
7:55 PM 35.6 °F 30.7 °F 35.6 °F 100% 29.87 in 7.0 mi NE 5.8 mph 16.1 mph 0.03 in   Overcast
8:15 PM 33.8 °F 27.7 °F 33.8 °F 100% 29.88 in 5.0 mi NE 6.9 mph - 0.01 in Rain Light Rain
8:35 PM 33.8 °F 25.8 °F 33.8 °F 100% 29.87 in 7.0 mi NE 10.4 mph - 0.02 in Rain Light Rain
8:55 PM 33.8 °F 27.7 °F 33.8 °F 100% 29.88 in 10.0 mi NE 6.9 mph - 0.03 in   Overcast
9:15 PM 33.8 °F 27.7 °F 33.8 °F 100% 29.90 in 10.0 mi ENE 6.9 mph - 0.01 in   Light Drizzle
9:35 PM 33.8 °F 26.4 °F 33.8 °F 100% 29.90 in 7.0 mi NNE 9.2 mph - 0.02 in   Overcast
9:55 PM 35.6 °F 29.9 °F 35.6 °F 100% 29.92 in 7.0 mi NNE 6.9 mph - 0.03 in   Overcast
10:15 PM 35.6 °F 29.2 °F 35.6 °F 100% 29.90 in 10.0 mi NNE 8.1 mph - N/A   Mostly Cloudy
10:35 PM 35.6 °F 28.6 °F 35.6 °F 100% 29.93 in 10.0 mi NE 9.2 mph - 0.01 in   Mostly Cloudy
10:55 PM 33.8 °F 27.0 °F 33.8 °F 100% 29.92 in 10.0 mi ENE 8.1 mph - 0.02 in   Mostly Cloudy
11:15 PM 33.8 °F 27.7 °F 33.8 °F 100% 29.93 in 10.0 mi NE 6.9 mph - 0.01 in   Scattered Clouds
11:35 PM 35.6 °F 28.6 °F 35.6 °F 100% 29.92 in 10.0 mi NNE 9.2 mph - 0.01 in   Scattered Clouds
11:55 PM 33.8 °F 27.7 °F 33.8 °F 100% 29.93 in 10.0 mi NE 6.9 mph - 0.01 in   Mostly Cloudy